Tracking 27097 objects as of 29-Mar-2023
HD Live streaming from Space Station
objects crossing your sky now

EXPLORER 30

Track EXPLORER 30 now!
10-day predictions
EXPLORER 30 is classified as:


NORAD ID: 1738
Int'l Code: 1965-093A
Perigee: 665.3 km
Apogee: 862.4 km
Inclination: 59.7 °
Period: 100.0 minutes
Semi major axis: 7134 km
RCS: 0.3725 m2 (medium)
Launch date: November 19, 1965
Source: United States (US)
Launch site: WALLOPS ISLAND (WLPIS)
Your satellite tracking list
Your tracking list is empty




NASA's NSSDC Master Catalog

Two Line Element Set (TLE):
1 01738U 65093A   23087.84843185  .00000425  00000-0  16302-3 0  9999
2 01738  59.7068 283.0737 0138102  41.6965 319.4500 14.40543743986899
Source of the keplerian elements: AFSPC